| time (UTC) | temp F | wind direction | speed MPH | gust MPH | rain 1hr in | rain 24hr in | rain mn in | humidity % | barometer mb |
| 20260507010003 | 61 | 277 | 1.0 | 8.0 | 0.00 | 0.30 | 0.30 | 87 | 1008.7 |
| 20260507005003 | 61 | 294 | 1.0 | 5.0 | 0.00 | 0.30 | 0.30 | 89 | 1008.9 |
| 20260507004003 | 62 | 288 | 1.0 | 6.0 | 0.01 | 0.30 | 0.30 | 90 | 1008.8 |
| 20260507003003 | 62 | 317 | 0.0 | 10.0 | 0.02 | 0.30 | 0.30 | 92 | 1008.5 |
| 20260507002003 | 63 | 312 | 0.0 | 2.0 | 0.03 | 0.30 | 0.30 | 92 | 1008.1 |
| 20260507001003 | 63 | 328 | 0.0 | 1.0 | 0.04 | 0.30 | 0.30 | 91 | 1007.5 |
| 20260507000003 | 63 | 207 | 0.0 | 2.0 | 0.04 | 0.30 | 0.30 | 90 | 1007.2 |
| 20260506235003 | 63 | 227 | 1.0 | 4.0 | 0.04 | 0.30 | 0.30 | 90 | 1007.2 |
| 20260506234003 | 64 | 211 | 0.0 | 2.0 | 0.03 | 0.29 | 0.29 | 90 | 1007.4 |
| 20260506233003 | 64 | 181 | 0.0 | 2.0 | 0.02 | 0.28 | 0.28 | 89 | 1007.3 |
| 20260506232003 | 65 | 203 | 1.0 | 6.0 | 0.01 | 0.27 | 0.27 | 88 | 1007.4 |
| 20260506231003 | 65 | 227 | 1.0 | 6.0 | 0.00 | 0.26 | 0.26 | 87 | 1007.3 |
| 20260506230003 | 66 | 209 | 1.0 | 2.0 | 0.00 | 0.26 | 0.26 | 86 | 1007.1 |
| 20260506225003 | 66 | 193 | 1.0 | 5.0 | 0.00 | 0.26 | 0.26 | 85 | 1006.9 |
| 20260506223003 | 67 | 223 | 1.0 | 4.0 | 0.00 | 0.26 | 0.26 | 83 | 1007.0 |
| 20260506222003 | 67 | 216 | 1.0 | 4.0 | 0.00 | 0.26 | 0.26 | 82 | 1006.9 |
| 20260506220003 | 67 | 203 | 2.0 | 8.0 | 0.00 | 0.26 | 0.26 | 82 | 1006.7 |
| 20260506215003 | 67 | 207 | 2.0 | 10.0 | 0.00 | 0.26 | 0.26 | 81 | 1006.8 |
| 20260506213003 | 68 | 220 | 2.0 | 8.0 | 0.00 | 0.26 | 0.26 | 80 | 1006.6 |
| 20260506211003 | 69 | 224 | 4.0 | 11.0 | 0.00 | 0.26 | 0.26 | 77 | 1006.4 |
| 20260506210003 | 70 | 268 | 4.0 | 18.0 | 0.00 | 0.26 | 0.26 | 77 | 1006.2 |
| 20260506205003 | 70 | 211 | 4.0 | 9.0 | 0.00 | 0.26 | 0.26 | 80 | 1006.2 |
| 20260506204003 | 68 | 233 | 2.0 | 10.0 | 0.00 | 0.26 | 0.26 | 80 | 1006.3 |
| 20260506203003 | 68 | 249 | 2.0 | 9.0 | 0.00 | 0.26 | 0.26 | 81 | 1006.2 |
| 20260506202002 | 67 | 247 | 1.0 | 5.0 | 0.00 | 0.26 | 0.26 | 82 | 1006.2 |
| 20260506201003 | 67 | 235 | 2.0 | 8.0 | 0.00 | 0.26 | 0.26 | 82 | 1006.3 |
| 20260506195003 | 66 | 193 | 1.0 | 9.0 | 0.00 | 0.26 | 0.26 | 85 | 1006.4 |
| 20260506194003 | 65 | 220 | 1.0 | 6.0 | 0.00 | 0.26 | 0.26 | 86 | 1006.5 |
| 20260506192003 | 65 | 194 | 2.0 | 8.0 | 0.00 | 0.26 | 0.26 | 85 | 1006.5 |
| 20260506191003 | 65 | 188 | 2.0 | 9.0 | 0.00 | 0.26 | 0.26 | 86 | 1006.6 |
| 20260506190004 | 65 | 218 | 2.0 | 6.0 | 0.00 | 0.26 | 0.26 | 89 | 1006.6 |
| 20260506184003 | 63 | 212 | 2.0 | 8.0 | 0.00 | 0.26 | 0.26 | 90 | 1006.9 |
| 20260506182003 | 62 | 181 | 2.0 | 12.0 | 0.00 | 0.26 | 0.26 | 90 | 1007.2 |
| 20260506181003 | 62 | 208 | 2.0 | 9.0 | 0.00 | 0.26 | 0.26 | 90 | 1007.1 |
| 20260506180003 | 62 | 188 | 4.0 | 8.0 | 0.00 | 0.26 | 0.26 | 91 | 1007.3 |
| 20260506173003 | 61 | 191 | 4.0 | 12.0 | 0.00 | 0.26 | 0.26 | 91 | 1007.2 |
| 20260506172003 | 61 | 195 | 5.0 | 10.0 | 0.00 | 0.26 | 0.26 | 91 | 1007.1 |
| 20260506170003 | 61 | 195 | 4.0 | 12.0 | 0.00 | 0.26 | 0.26 | 91 | 1007.1 |
| 20260506165003 | 61 | 199 | 5.0 | 11.0 | 0.01 | 0.26 | 0.26 | 92 | 1007.1 |
| 20260506163003 | 61 | 188 | 4.0 | 14.0 | 0.03 | 0.26 | 0.26 | 92 | 1007.5 |
| 20260506162003 | 61 | 198 | 5.0 | 14.0 | 0.05 | 0.26 | 0.26 | 92 | 1007.6 |
| 20260506161003 | 61 | 189 | 4.0 | 15.0 | 0.06 | 0.26 | 0.26 | 92 | 1007.5 |
| 20260506155003 | 61 | 144 | 4.0 | 15.0 | 0.09 | 0.25 | 0.25 | 93 | 1006.9 |
| 20260506154003 | 61 | 175 | 2.0 | 10.0 | 0.09 | 0.23 | 0.23 | 93 | 1007.4 |
| 20260506153003 | 61 | 181 | 4.0 | 10.0 | 0.10 | 0.23 | 0.23 | 93 | 1007.9 |
| 20260506151003 | 61 | 207 | 4.0 | 9.0 | 0.09 | 0.19 | 0.19 | 92 | 1008.4 |
| 20260506150003 | 61 | 200 | 4.0 | 12.0 | 0.11 | 0.18 | 0.18 | 91 | 1008.4 |
| 20260506145003 | 61 | 187 | 2.0 | 9.0 | 0.11 | 0.16 | 0.16 | 91 | 1008.4 |
| 20260506143003 | 62 | 177 | 2.0 | 8.0 | 0.09 | 0.13 | 0.13 | 91 | 1008.3 |
| 20260506142003 | 61 | 183 | 4.0 | 14.0 | 0.10 | 0.13 | 0.13 | 91 | 1008.2 |
| 20260506141003 | 61 | 159 | 1.0 | 9.0 | 0.07 | 0.10 | 0.10 | 90 | 1008.1 |
| 20260506140003 | 61 | 154 | 1.0 | 6.0 | 0.05 | 0.07 | 0.07 | 90 | 1008.1 |
| 20260506135003 | 62 | 139 | 1.0 | 8.0 | 0.03 | 0.05 | 0.05 | 89 | 1008.1 |
| 20260506134003 | 62 | 154 | 1.0 | 6.0 | 0.03 | 0.04 | 0.04 | 88 | 1008.3 |
| 20260506133003 | 62 | 192 | 1.0 | 6.0 | 0.03 | 0.04 | 0.04 | 88 | 1008.1 |
| 20260506132003 | 62 | 199 | 0.0 | 4.0 | 0.02 | 0.03 | 0.03 | 87 | 1008.3 |
| 20260506131002 | 62 | 172 | 1.0 | 4.0 | 0.03 | 0.03 | 0.03 | 87 | 1008.3 |
| 20260506130003 | 62 | 176 | 1.0 | 4.0 | 0.02 | 0.02 | 0.02 | 86 | 1008.4 |
| 20260506125003 | 62 | 171 | 1.0 | 5.0 | 0.02 | 0.02 | 0.02 | 86 | 1008.4 |
| 20260506124003 | 62 | 170 | 1.0 | 6.0 | 0.01 | 0.01 | 0.01 | 85 | 1008.5 |
| 20260506122003 | 63 | 176 | 1.0 | 5.0 | 0.01 | 0.01 | 0.01 | 84 | 1008.7 |
| 20260506121004 | 63 | 179 | 2.0 | 8.0 | 0.00 | 0.00 | 0.00 | 83 | 1008.6 |
| 20260506120003 | 63 | 179 | 2.0 | 8.0 | 0.00 | 0.00 | 0.00 | 83 | 1008.3 |
| 20260506115003 | 63 | 183 | 2.0 | 8.0 | 0.00 | 0.00 | 0.00 | 81 | 1008.1 |
| 20260506114005 | 63 | 206 | 2.0 | 6.0 | 0.00 | 0.00 | 0.00 | 81 | 1008.2 |
| 20260506113003 | 64 | 195 | 2.0 | 9.0 | 0.00 | 0.00 | 0.00 | 80 | 1008.0 |
| 20260506112004 | 64 | 188 | 2.0 | 9.0 | 0.00 | 0.00 | 0.00 | 78 | 1007.9 |
| 20260506111003 | 64 | 183 | 4.0 | 9.0 | 0.00 | 0.00 | 0.00 | 77 | 1007.8 |
| 20260506110003 | 64 | 167 | 2.0 | 11.0 | 0.00 | 0.00 | 0.00 | 77 | 1007.6 |
| 20260506105003 | 64 | 184 | 2.0 | 9.0 | 0.00 | 0.00 | 0.00 | 77 | 1007.7 |
| 20260506104003 | 65 | 175 | 4.0 | 15.0 | 0.00 | 0.00 | 0.00 | 76 | 1007.7 |
| 20260506103003 | 65 | 193 | 2.0 | 11.0 | 0.00 | 0.00 | 0.00 | 77 | 1007.4 |
| 20260506102003 | 64 | 198 | 1.0 | 9.0 | 0.00 | 0.00 | 0.00 | 76 | 1007.4 |
| 20260506101003 | 65 | 184 | 2.0 | 9.0 | 0.00 | 0.00 | 0.00 | 76 | 1007.3 |
| 20260506100003 | 65 | 168 | 4.0 | 11.0 | 0.00 | 0.00 | 0.00 | 75 | 1007.2 |
| 20260506095003 | 65 | 186 | 2.0 | 9.0 | 0.00 | 0.00 | 0.00 | 75 | 1007.2 |
| 20260506094003 | 65 | 169 | 4.0 | 11.0 | 0.00 | 0.00 | 0.00 | 75 | 1007.2 |
| 20260506093004 | 65 | 175 | 4.0 | 12.0 | 0.00 | 0.00 | 0.00 | 74 | 1007.3 |
| 20260506092003 | 65 | 194 | 2.0 | 10.0 | 0.00 | 0.00 | 0.00 | 74 | 1007.4 |
| 20260506091003 | 65 | 181 | 2.0 | 11.0 | 0.00 | 0.00 | 0.00 | 74 | 1007.4 |
| 20260506085003 | 65 | 190 | 2.0 | 8.0 | 0.00 | 0.00 | 0.00 | 73 | 1007.4 |
| 20260506084003 | 65 | 186 | 2.0 | 9.0 | 0.00 | 0.00 | 0.00 | 72 | 1007.6 |
| 20260506083004 | 65 | 183 | 2.0 | 11.0 | 0.00 | 0.00 | 0.00 | 72 | 1007.6 |
| 20260506082003 | 65 | 191 | 2.0 | 11.0 | 0.00 | 0.00 | 0.00 | 72 | 1007.6 |
| 20260506081003 | 65 | 167 | 2.0 | 10.0 | 0.00 | 0.00 | 0.00 | 71 | 1007.6 |
| 20260506073003 | 65 | 178 | 1.0 | 4.0 | 0.00 | 0.00 | 0.00 | 68 | 1007.8 |
| 20260506072003 | 66 | 173 | 1.0 | 6.0 | 0.00 | 0.00 | 0.00 | 68 | 1007.8 |
| 20260506071003 | 66 | 163 | 1.0 | 5.0 | 0.00 | 0.00 | 0.00 | 67 | 1007.9 |
| 20260506062003 | 66 | 176 | 2.0 | 9.0 | 0.00 | 0.00 | 0.00 | 65 | 1008.3 |
| 20260506051003 | 66 | 182 | 1.0 | 6.0 | 0.00 | 0.00 | 0.00 | 63 | 1008.7 |
| 20260506044003 | 66 | 179 | 2.0 | 6.0 | 0.00 | 0.00 | 0.00 | 61 | 1008.8 |
| 20260506043003 | 66 | 169 | 1.0 | 5.0 | 0.00 | 0.00 | 0.00 | 61 | 1008.8 |
| 20260506041003 | 67 | 155 | 1.0 | 8.0 | 0.00 | 0.00 | 0.00 | 59 | 1008.8 |
| 20260506040004 | 67 | 152 | 1.0 | 6.0 | 0.00 | 0.00 | 0.00 | 59 | 1008.8 |
| 20260506035003 | 67 | 158 | 2.0 | 6.0 | 0.00 | 0.00 | 0.00 | 58 | 1008.8 |
| 20260506034004 | 67 | 156 | 1.0 | 9.0 | 0.00 | 0.00 | 0.00 | 58 | 1008.7 |
| 20260506032003 | 68 | 197 | 2.0 | 9.0 | 0.00 | 0.00 | 0.00 | 58 | 1008.7 |
| 20260506030004 | 67 | 171 | 2.0 | 9.0 | 0.00 | 0.00 | 0.00 | 59 | 1008.7 |
| 20260506025003 | 67 | 191 | 1.0 | 5.0 | 0.00 | 0.00 | 0.00 | 59 | 1008.8 |
| 20260506024003 | 67 | 168 | 1.0 | 5.0 | 0.00 | 0.00 | 0.00 | 59 | 1008.8 |
| 20260506023004 | 67 | 192 | 0.0 | 4.0 | 0.00 | 0.00 | 0.00 | 58 | 1008.8 |
| 20260506021003 | 68 | 156 | 1.0 | 5.0 | 0.00 | 0.00 | 0.00 | 57 | 1008.7 |
| 20260506020003 | 68 | 156 | 1.0 | 5.0 | 0.00 | 0.00 | 0.00 | 55 | 1008.7 |
| 20260506015003 | 69 | 186 | 1.0 | 6.0 | 0.00 | 0.00 | 0.00 | 54 | 1008.7 |
| 20260506014004 | 70 | 162 | 1.0 | 8.0 | 0.00 | 0.00 | 0.00 | 53 | 1008.5 |
| 20260506013003 | 70 | 199 | 1.0 | 8.0 | 0.00 | 0.00 | 0.00 | 52 | 1008.5 |
| 20260506012003 | 71 | 164 | 2.0 | 6.0 | 0.00 | 0.00 | 0.00 | 50 | 1008.4 |